DW9615 Home Hill AU current weather conditions

sailwx.info

Wind from 179

Air temperature 21.7° C
Dewpoint 19.6° C

Last reported at 2015-Mar-31 20:40 UTC.
Time now 2015-Mar-31 22:04 UTC

Location: S 19°40' E 147°25'.
View on Google Maps.

See reports from other nearby stations

  
Tides and Currents Weather Stations Pressure Air Temp Water Temp Dewpoint Dewpoint Depression Visibility Wind Speed Wind Dir Waves Ship Positions
date/time (UTC)wind fromknots sea level pressurealtimeterstation pressurevisibilityair tempwater tempwave heightnotes
2015-Mar-31 20:40 179 21.7
2015-Mar-31 20:25 175 0 gusting 3 21.7
2015-Mar-31 20:10 161 1 gusting 3 21.7
2015-Mar-31 19:55 165 0 gusting 3 21.7
2015-Mar-31 19:40 170 0 gusting 2 22.2
2015-Mar-31 19:25 160 1 gusting 5 22.2
2015-Mar-31 19:10 160 2 gusting 5 22.2
2015-Mar-31 18:55 139 0 gusting 4 22.8
2015-Mar-31 18:40 145 1 gusting 5 22.8
2015-Mar-31 18:25 110 1 gusting 4 22.8
2015-Mar-31 18:10 140 1 gusting 5 22.8
2015-Mar-31 17:55 146 2 gusting 6 23.3
2015-Mar-31 17:40 117 1 gusting 4 22.8
2015-Mar-31 17:25 119 1 gusting 3 23.3
2015-Mar-31 17:10 107 2 gusting 7 23.9
2015-Mar-31 16:55 124 2 gusting 8 23.9
2015-Mar-31 16:40 133 3 gusting 9 23.9
2015-Mar-31 16:25 146 4 gusting 7 23.9
2015-Mar-31 16:10 165 2 gusting 7 23.9
2015-Mar-31 15:55 109 2 gusting 6 23.9
2015-Mar-31 15:40 122 0 gusting 6 23.9
2015-Mar-31 15:25 110 0 gusting 3 23.3
2015-Mar-31 15:10 170 0 gusting 2 23.3
2015-Mar-31 14:54 175 23.3
2015-Mar-31 14:39 175 23.3
2015-Mar-31 14:24 175 23.3
2015-Mar-31 14:09 175 23.3
2015-Mar-31 13:54 175 23.3
2015-Mar-31 13:39 175 23.9
2015-Mar-31 13:24 175 23.9
2015-Mar-31 13:09 175 23.9
2015-Mar-31 12:54 175 23.9
2015-Mar-31 12:39 242 23.9
2015-Mar-31 12:26 242 24.4
2015-Mar-31 09:55 063 3 gusting 6 26.7
2015-Mar-31 09:40 091 6 gusting 12 26.7
2015-Mar-31 09:25 071 4 gusting 12 26.7
2015-Mar-31 09:10 061 4 gusting 8 26.7
2015-Mar-31 08:55 064 4 gusting 8 26.7
2015-Mar-31 08:40 054 3 gusting 9 26.7
2015-Mar-31 08:25 049 5 gusting 11 26.7
2015-Mar-31 08:10 056 4 gusting 13 26.7
2015-Mar-31 07:55 094 5 gusting 13 27.2
2015-Mar-31 07:40 106 8 gusting 16 27.8
2015-Mar-31 07:25 095 7 gusting 13 27.8
2015-Mar-31 07:10 072 6 gusting 16 28.3
2015-Mar-31 06:55 080 7 gusting 15 28.3
2015-Mar-31 06:40 047 9 gusting 15 28.9
2015-Mar-31 06:25 071 7 gusting 16 28.9
2015-Mar-31 06:10 083 7 gusting 13 29.4
2015-Mar-31 05:55 044 9 gusting 17 29.4
2015-Mar-31 05:40 064 7 gusting 13 30.0
2015-Mar-31 05:25 106 8 gusting 15 30.0
2015-Mar-31 05:10 061 7 gusting 13 30.0
2015-Mar-31 04:55 033 6 gusting 14 30.6
2015-Mar-31 04:40 099 7 gusting 16 30.6
2015-Mar-31 04:25 056 6 gusting 13 31.1
2015-Mar-31 04:10 058 8 gusting 14 30.6
2015-Mar-31 03:55 059 6 gusting 12 31.1
2015-Mar-31 03:39 032 6 gusting 13 31.1
2015-Mar-31 03:24 052 6 gusting 11 31.1
2015-Mar-31 03:09 054 6 gusting 12 30.6
2015-Mar-31 02:55 058 5 gusting 13 30.6
2015-Mar-31 02:39 105 8 gusting 13 30.6
2015-Mar-31 02:24 090 6 gusting 12 31.1
2015-Mar-31 02:09 062 6 gusting 12 30.6
2015-Mar-31 01:54 109 5 gusting 10 30.6
2015-Mar-31 01:39 074 6 gusting 11 30.6
2015-Mar-31 01:24 084 5 gusting 13 30.0
2015-Mar-31 01:09 085 6 gusting 12 30.0
2015-Mar-31 00:54 109 3 gusting 9 29.4
2015-Mar-31 00:39 087 4 gusting 9 30.0
2015-Mar-31 00:24 076 4 gusting 10 29.4
2015-Mar-31 00:09 091 3 gusting 8 28.3
2015-Mar-30 23:54 085 6 gusting 9 28.9
2015-Mar-30 23:39 094 6 gusting 13 28.3
2015-Mar-30 23:24 133 4 gusting 9 29.4
2015-Mar-30 23:11 097 5 gusting 9 28.9
2015-Mar-30 22:54 139 3 gusting 10 28.3
2015-Mar-30 22:39 084 3 gusting 7 27.8
2015-Mar-30 22:24 156 4 gusting 8 27.2
2015-Mar-30 22:09 135 2 gusting 7 26.7
2015-Mar-30 21:54 131 2 gusting 6 25.6
2015-Mar-30 21:38 143 1 gusting 4 25.0
2015-Mar-30 21:23 175 1 gusting 4 23.9
2015-Mar-30 21:08 148 1 gusting 3 22.8
2015-Mar-30 20:53 152 0 gusting 2 22.2
2015-Mar-30 20:38 170 21.1
2015-Mar-30 20:23 175 21.1
2015-Mar-30 20:08 175 21.1
2015-Mar-30 19:53 175 21.1
2015-Mar-30 19:38 175 21.1
2015-Mar-30 19:23 175 21.1
2015-Mar-30 19:08 175 21.1
2015-Mar-30 18:53 175 21.1
2015-Mar-30 18:38 175 21.7
2015-Mar-30 18:23 175 21.7
2015-Mar-30 18:08 175 0 gusting 2 21.7
2015-Mar-30 17:53 137 21.7
2015-Mar-30 17:38 129 21.7
2015-Mar-30 17:23 139 0 gusting 1 21.7
2015-Mar-30 17:08 129 22.2
2015-Mar-30 16:53 129 22.2
2015-Mar-30 16:38 132 0 gusting 2 22.2
2015-Mar-30 16:23 146 0 gusting 2 22.2
2015-Mar-30 16:08 126 0 gusting 2 22.2
2015-Mar-30 15:53 127 1 gusting 2 22.2
2015-Mar-30 15:38 112 0 gusting 2 22.2
2015-Mar-30 15:23 137 22.2
2015-Mar-30 15:08 119 22.8
2015-Mar-30 14:53 119 22.8
2015-Mar-30 14:38 119 0 gusting 1 22.8
2015-Mar-30 14:23 119 23.3
2015-Mar-30 14:08 125 23.3
2015-Mar-30 13:53 125 0 gusting 1 23.3
2015-Mar-30 13:38 136 0 gusting 1 23.9
2015-Mar-30 13:23 094 23.9
2015-Mar-30 13:08 094 23.9
2015-Mar-30 12:53 103 0 gusting 3 24.4
2015-Mar-30 12:38 126 0 gusting 3 24.4
2015-Mar-30 12:23 094 1 gusting 3 25.0
2015-Mar-30 12:08 094 1 gusting 4 25.0
2015-Mar-30 11:53 115 1 gusting 4 25.0
2015-Mar-30 11:38 091 0 gusting 4 25.6
2015-Mar-30 11:22 106 2 gusting 4 25.6
2015-Mar-30 11:07 141 2 gusting 6 25.6
2015-Mar-30 10:52 122 1 gusting 6 26.1
2015-Mar-30 10:37 092 2 gusting 6 26.1
2015-Mar-30 10:22 075 3 gusting 7 26.7
2015-Mar-30 10:07 088 4 gusting 7 26.7
2015-Mar-30 09:52 094 4 gusting 7 26.7
2015-Mar-30 09:37 079 4 gusting 8 26.7
2015-Mar-30 09:22 109 5 gusting 8 26.7
2015-Mar-30 09:07 148 2 gusting 7 26.7
2015-Mar-30 08:52 065 3 gusting 6 26.7
2015-Mar-30 08:37 072 3 gusting 8 27.2
2015-Mar-30 08:22 096 3 gusting 10 27.2
2015-Mar-30 08:07 069 4 gusting 11 27.8
2015-Mar-30 07:52 058 5 gusting 12 28.3
2015-Mar-30 07:38 091 4 gusting 12 28.3
2015-Mar-30 07:22 086 6 gusting 11 28.9
2015-Mar-30 07:07 058 6 gusting 13 29.4
2015-Mar-30 06:52 049 4 gusting 12 29.4
2015-Mar-30 06:37 048 6 gusting 11 29.4
2015-Mar-30 06:22 067 6 gusting 12 30.0
2015-Mar-30 06:07 017 5 gusting 12 30.6
2015-Mar-30 05:52 075 6 gusting 13 30.6
2015-Mar-30 05:37 055 5 gusting 10 30.6
2015-Mar-30 05:22 027 6 gusting 12 30.6
2015-Mar-30 05:07 103 6 gusting 13 30.6
2015-Mar-30 04:52 079 5 gusting 13 30.6
2015-Mar-30 04:37 142 6 gusting 11 30.6
2015-Mar-30 04:22 088 7 gusting 14 30.6
2015-Mar-30 04:07 082 6 gusting 12 30.6
2015-Mar-30 03:52 058 8 gusting 13 31.1
2015-Mar-30 03:37 064 6 gusting 13 31.7
2015-Mar-30 03:22 077 6 gusting 11 31.7
2015-Mar-30 03:07 071 6 gusting 12 31.1
2015-Mar-30 02:52 042 6 gusting 13 31.1
2015-Mar-30 02:37 082 7 gusting 13 31.1
2015-Mar-30 02:22 052 8 gusting 13 31.7
2015-Mar-30 02:07 067 6 gusting 12 31.1
2015-Mar-30 01:52 098 5 gusting 10 31.1
2015-Mar-30 01:37 091 6 gusting 13 31.1
2015-Mar-30 01:22 098 6 gusting 12 31.1
2015-Mar-30 01:07 110 6 gusting 13 30.6
2015-Mar-30 00:52 160 6 gusting 13 30.6
2015-Mar-30 00:37 131 7 gusting 13 30.0
2015-Mar-30 00:22 108 6 gusting 15 30.0
2015-Mar-30 00:07 150 6 gusting 13 30.0
2015-Mar-29 23:52 087 6 gusting 11 30.0
2015-Mar-29 23:37 125 5 gusting 13 29.4
2015-Mar-29 23:22 091 6 gusting 12 29.4
2015-Mar-29 23:07 091 5 gusting 13 28.9
2015-Mar-29 22:52 066 6 gusting 13 28.3
2015-Mar-29 22:36 158 5 gusting 13 27.8
2015-Mar-29 22:21 127 6 gusting 10 27.2
2015-Mar-29 22:06 175 2 gusting 8 26.7